Regional Weather Roundup
Issued by NWS Grand Forks, ND

Home | Current Version | Previous Version | Graphics & Text | Print | Product List | Glossary On
Versions: 1 2 3 4 5 6 7 8 9 10 11 12 13 14 15 16 17 18 19 20 21 22 23 24 25 26 27 28 29 30 31 32 33 34 35 36 37 38 39 40 41 42 43 44 45 46 47 48 49 50
000
ASUS43 KFGF 230731
RWRFGF
PRAIRIE TO PINES  WEATHER ROUNDUP
NATIONAL WEATHER SERVICE EASTERN NORTH DAKOTA/GRAND FORKS ND
200 AM CDT TUE SEP 23 2014

 **SATELLITE DATA USED TO AUGMENT SKY COVER AT AUTOMATED STATIONS**
 *****  WEATHER ACROSS EASTERN NORTH DAKOTA  *****

CITY           SKY/WX    TMP DP  RH WIND       PRES   REMARKS
GRAND FORKS    CLEAR     53  48  83 S8        30.03S
GRAND FRKS AFB CLEAR     51  50  94 SE6       30.03S
GRAND FRKS NWS   N/A     55 N/A N/A S6          N/A
DEVILS LAKE    CLEAR     57  46  67 S5        29.98R
FARGO          CLEAR     60  48  64 SE10      30.05S
WAHPETON ARPT  SUNNY     54  45  71 SE7       30.08R
$$

 ***** WEATHER ACROSS CENTRAL AND WESTERN NORTH DAKOTA  *****

CITY           SKY/WX    TMP DP  RH WIND       PRES   REMARKS
BISMARCK       CLEAR     56  51  84 SE9       29.93F
MINOT          CLEAR     54  47  77 E7        29.90F
JAMESTOWN      CLEAR     57  49  74 S9        29.99F
MINOT AFB      CLEAR     52  49  90 SE6       29.90S
GARRISON         N/A     57  51  80 SE6       29.91S
WILLISTON      CLEAR     55  47  74 N5        29.86F
DICKINSON      CLEAR     55  49  80 SE10      29.88R
HETTINGER      PTCLDY    53  49  86 CALM      29.90F
$$

 *****  OTHER AIRPORT OBSERVATIONS IN OUR AREA  *****

CITY           SKY/WX    TMP DP  RH WIND       PRES   REMARKS
WALHALLA       FAIR      54  50  87 SE5       30.00S
GRAFTON AIRPOR FAIR      50  48  93 SE7       30.02S
VALLEY CITY AR FAIR      55  54  94 S8        30.02S
CANDO          FAIR      50  48  93 SE7       29.98S
CAVALIER APRT  FAIR      50  46  87 S8        30.01S
GWINNER        SUNNY     55  52  88 SE6       30.04S
SHEYENNE NWR     N/A     54  48  80 S7        29.95S
ROLLA          FAIR      50  48  93 S3        29.99S
 ***** THE ABOVE OBSERVATIONS ARE NON NWS ARE NOT QUALITY
       CONTROLLED AND MAY MIS-REPORT RAIN FOR SNOW...
$$

  *****  WEATHER ACROSS NORTHERN MINNESOTA  *****

CITY           SKY/WX    TMP DP  RH WIND       PRES   REMARKS
FLAG ISLAND    CLEAR     57  54  88 S5        30.06S
WARROAD        CLEAR     54  50  87 S3        30.08S
ROSEAU         CLEAR     54  46  76 S7        30.07R
HALLOCK        CLEAR     52  48  87 SE9       30.02S
THF RVR FALLS  CLEAR     54  48  82 S7        30.07S
BAUDETTE       CLEAR     50  47  89 CALM      30.09R
WASKISH        CLEAR     54  48  82 CALM      30.11S
CROOKSTON      CLEAR     52  48  87 SE9       30.05F
STEPHEN NDAWN    N/A     55  50  82 SE7         N/A
GREENBUSH NDAW   N/A     52  48  87 S3          N/A
$$
  *****  WEATHER ACROSS CENTRAL AND WEST MINNESOTA  *****

CITY           SKY/WX    TMP DP  RH WIND       PRES   REMARKS
FOSSTON        CLEAR     54  48  82 SE6       30.09F
BEMIDJI        CLEAR     47  46  97 CALM      30.12S
PARK RAPIDS    CLEAR     50  48  93 SE5       30.13R
ELBOW LAKE     FAIR      54  48  80 SE8       30.11S
WADENA         CLEAR     48  45  87 CALM      30.13R
DETROIT LAKES  CLEAR     55  50  82 SE6       30.11F
MOORHEAD       CLEAR     57  52  82 S9        30.06F
FERGUS FALLS   CLEAR     55  46  71 SE9       30.10S
MORRIS MN      CLEAR     52  48  87 SE8       30.10F
STAPLES        CLEAR     46  46 100 CALM      30.14S
$$
  *****  WEATHER ELSEWHERE ACROSS MINNESOTA  *****

CITY           SKY/WX    TMP DP  RH WIND       PRES   REMARKS
DULUTH         CLEAR     55  48  77 W8        30.16R
INTRNTL FALLS  CLEAR     43  42  97 CALM      30.11S
ELY            CLEAR     45  43  93 CALM      30.15S
CLOQUET        CLEAR     46  45  93 SW3       30.17S
WHEATON        CLEAR     50  46  87 SE10      30.10R
BRAINERD       CLEAR     46  45  96 CALM      30.16R
HIBBING        CLEAR     41  39  93 CALM      30.16S FOG
ALEXANDRIA     CLEAR     51  46  83 S6        30.14S
SAINT CLOUD    CLEAR     50  47  89 SE5       30.17R
MINNEAPOLIS    CLEAR     55  50  83 SE3       30.19R
$$

  *****  WEATHER ACROSS SOUTH DAKOTA  *****

CITY           SKY/WX    TMP DP  RH WIND       PRES   REMARKS
SIOUX FALLS    PTCLDY    60  49  66 S12       30.13S
BROOKINGS      NOT AVBL
WATERTOWN      CLEAR     54  49  83 S10       30.08S
HURON          MOCLDY    63  51  65 S8        30.05S
SISSETON         N/A     51  49  92 SE8       30.05S
ABERDEEN       PTCLDY    60  50  69 S13       30.02S
MITCHELL       CLOUDY    64  53  67 S10       30.07F
PIERRE         CLOUDY    61  55  81 SE12      29.96F
MOBRIDGE       CLEAR     63  55  75 S15       29.93R
RAPID CITY     MOCLDY    58  54  86 SE7       29.93S
$$

  *****  SOME WEATHER IN NEARBY STATES *****

CITY           SKY/WX    TMP DP  RH WIND       PRES   REMARKS
GLASGOW MT     CLEAR     57  46  66 E7        29.83S
GREAT FALLS MT PTCLDY    65  48  54 SW12      29.93S
CHEYENNE WY    PTCLDY    58  43  57 W13       30.14F
SCOTTSBLUFF NE PTCLDY    54  53  97 E6        30.02S
OMAHA NE       CLOUDY    63  50  62 S10       30.19R
DES MOINES IA  PTCLDY    56  50  80 S6        30.23R
DAVENPORT IA   CLEAR     50  45  83 SE3       30.27R
CHICAGO IL     CLEAR     53  45  74 CALM      30.27S
EAU CLAIRE WI  FOG       45  44  97 CALM      30.20S VSB 3/4
LA CROSSE WI   CLEAR     53  50  89 SE6       30.23R
$$

  *****  SOME NATIONAL WEATHER *****

CITY           SKY/WX    TMP DP  RH WIND       PRES   REMARKS
LA GUARDIA NY  CLEAR     55  40  56 NW15      30.19S
RALEIGH NC     CLOUDY    63  52  67 NE14G20   30.18R
ATLANTA GA     PTCLDY    64  56  75 NE9       30.13S
NEW ORLEANS LA PTCLDY    74  57  55 NE17G25   30.05R
OKLAHOMA CITY  MOCLDY    58  50  75 SE6       30.19S
ALBUQUERQUE NM MOCLDY    66  60  81 S5        30.26F
SALT LAKE CITY MOCLDY    66  52  60 E3        30.11R
LOS ANGELES CA CLEAR     65  63  93 CALM      29.95S
BOISE ID       MOCLDY    67  51  56 W8        30.05R
SEATTLE WA     PTCLDY    61  55  81 CALM      29.92F
$$

*** WEATHER ACROSS MANITOBA...SASKATCHEWAN AND ONTARIO ***
                ***ONTARIO***

CITY           SKY/WX    TMP DP  RH WIND       PRES   REMARKS
GERALDTON      CLEAR     52  52 100 NE5       30.06R FOG
THUNDER BAY    CLEAR     52  48  87 SW5       30.09R
SIOUX LOOKOUT  CLEAR     48  48 100 S3        30.07R
TORONTO        PTCLDY    46  41  81 W8        30.23S
BIG TROUT LK   CLOUDY    45  41  87 E5        30.09S FOG
PICKLE LAKE    NOT AVBL
DRYDEN         CLEAR     55  50  82 S8        30.08R
KENORA         CLEAR     57  52  82 S7        30.07S
$$
                *** MANITOBA***

CITY           SKY/WX    TMP DP  RH WIND       PRES   REMARKS
BRANDON        CLEAR     48  45  87 E5        29.95S
DAUPHIN        CLEAR     48  45  87 SW6       29.88F
ISLAND LAKE    CLEAR     54  50  87 E6        29.98F
PILOT MOUND      N/A     54  46  76 S10         N/A
THE PAS        CLEAR     52  48  87 SE10      29.79S
THOMPSON       CLOUDY    50  48  93 SE8       29.89F
WINNIPEG       CLEAR     55  48  76 S10       30.00S
LYNN LAKE      CLEAR     50  48  93 SE10      29.74F
CHURCHILL      CLEAR     34  32  93 SE12      30.02F
GILLAM         CLOUDY    41  39  93 SE5       29.99F
$$
                ***SASKATCHEWAN***

CITY           SKY/WX    TMP DP  RH WIND       PRES   REMARKS
ESTEVAN        CLEAR     52  48  87 E2        29.88
KINDERSLEY     PTCLDY    54  48  82 S5        29.76S
LLOYDMINSTER   CLEAR     57  45  62 SW9       29.72S
PRINCE ALBERT  CLEAR     48  45  87 VRB2      29.72F
REGINA         CLEAR     55  48  76 SE12      29.84S
YORKTON        CLEAR     54  48  82 S8        29.86S
N. BATTLEFORD  CLEAR     52  46  82 CALM      29.74S HAZE
LA RONGE       CLEAR     59  48  67 S6        29.67
SASKATOON      CLEAR     55  48  76 S5        29.75S
SWIFT CURRENT  CLEAR     59  48  67 S12       29.81S
$$
NOTE: THESE ARE AUTOMATED STATIONS WITH LIMITED QUALITY CONTROL
      "FAIR" INDICATES FEW OR NO CLOUDS BELOW 12,000 FEET WITH NO
      SIGNIFICANT WEATHER AND/OR OBSTRUCTIONS TO VISIBILITY.
      SKY/WX - SKY CONDITION AND SIGNIFICANT WEATHER.
      TMP - AIR TEMPERATURE.    DP   - DEWPOINT TEMPERATURE.
      RH  - RELATIVE HUMIDITY.  PRES - PRESSURE.
      HX  - HEAT INDEX.         WCI  - WIND CHILL INDEX.
$


USA.gov is the U.S. government's official web portal to all federal, state and local government web resources and services.